Volver al catálogo

CZ-6A DEB

ActivoPO
NORAD 60706·DEBRIS·🇨🇳 China

Lanzado Aug 6, 2024 desde Taiyuan Satellite Launch Center

Loading…

Próximos Pases (próximas 24 horas)

TLE

ActualizadoSource: Space-Track

Época: Sep 14, 2026, 11:15 UTC

1 60706U 24140DK  26257.46933306  .00000377  00000-0  81067-4 0  9999
2 60706  89.0117 261.3428 0113427 326.6276  32.7816 14.52606173110748

Sigue CZ-6A DEB en tiempo real con AllMySat

Download on the App Store